Location: Seattle
(47.6060°N, 122.3310°W)
Time: 09:18:37
(UTC-07:00)

ISS - Visible Passes

Search period start: 20 September 2017 00:00
Search period end: 30 September 2017 00:00
Orbit: 402 x 407 km, 51.6° (Epoch: 21 September)

Date Brightness Start Highest point End Pass type
(mag) Time Alt. Az. Time Alt. Az. Time Alt. Az.
20 Sep -1.2 04:32:27 15° SE 04:32:27 15° SE 04:33:06 10° SE visible
20 Sep -1.7 06:05:10 11° WSW 06:05:45 12° SW 06:06:58 10° SSW visible
21 Sep -1.2 05:16:03 10° S 05:16:03 10° S 05:16:09 10° S visible
24 Sep -1.3 20:51:57 10° SSW 20:52:23 13° SSW 20:52:23 13° SSW visible
25 Sep -2.0 20:00:32 10° S 20:02:34 16° SE 20:02:52 15° SE visible
25 Sep -0.8 21:35:21 10° WSW 21:35:33 11° WSW 21:35:33 11° WSW visible
26 Sep -3.3 20:43:05 10° SW 20:45:48 45° S 20:45:48 45° S visible
27 Sep -2.9 19:51:04 10° SSW 19:53:59 30° SE 19:55:52 17° E visible
27 Sep -1.6 21:27:04 10° W 21:28:32 24° W 21:28:32 24° W visible
28 Sep -3.9 20:34:37 10° WSW 20:37:53 87° NNW 20:38:26 59° ENE visible
29 Sep -3.7 19:42:15 10° SW 19:45:29 60° SSE 19:48:13 14° ENE visible
29 Sep -1.9 21:18:53 10° W 21:20:52 30° WNW 21:20:52 30° WNW visible
